Location: *
(38.9800°N, 16.0500°E)
Time: 05:01:33
(UTC+00:00)

IDEFIX/ARIANE 42P - Pass Details

Date: 07 April 2020
Orbit: 786 x 802 km, 98.4° (Epoch: 05 June)

Event Time Altitude Azimuth Distance (km) Brightness Sun altitude
Rises 01:44:47 0° 21° (NNE) 3,289 6.6 -30.0°
Reaches altitude 10° 01:47:15 10° 28° (NNE) 2,357 5.8 -29.6°
Maximum altitude 01:52:09 41° 98° (E) 1,143 3.6 -28.9°
Enters shadow 01:53:27 34° 133° (SE) 1,269 3.6 -28.7°
